KINEIS-1C

Last updated on Mon Sep 21 2026 00:02:54 GMT+0000 (Coordinated Universal Time)

1 60081U 24114C 26263.57205693 .00000383 00000+0 56544-4 0 9994 2 60081 97.9823 287.1683 0000863 134.6305 225.4978 14.80748826121491
UTC large
Height (km)
Speed (km/s)
/
Latitude / Longitude
Inclination (degrees)
Orbital Period (minutes)
Azimuth
Elevation
Range (km)
Doppler Factor

Next 0 passes for location: London (51.5072 / 0.1276)

No passes found over London.
KINEIS-1C